Wind_Speed
12 11 11 11 11 12 13 13 14 15 15 15 14 14 14 14 13 13 13 14 14 14 15 16 17 18 19 20 22 23 24 24 25 26 27 28 29 29 30 31 31 31 32
14 14 14 14 14 14 15 15 15 15 16 15 15 15 14 15 14 14 14 15 15 16 17 18 19 19 20 21 22 23 24 25 26 27 28 29 30 31 32 32 33 34 34
17 17 17 17 17 17 18 18 18 18 18 18 17 17 17 16 16 16 16 16 17 17 18 19 20 20 21 22 23 24 24 26 27 28 29 30 31 32 33 34 35 36 37
19 20 21 21 21 21 21 21 22 21 21 20 20 19 19 19 18 17 18 18 18 19 19 20 21 21 23 24 25 26 26 27 29 30 31 32 33 35 36 37 39 40 41
24 24 25 25 26 26 26 26 25 25 24 23 22 21 21 21 20 20 21 21 20 21 22 22 23 25 25 27 28 28 29 31 32 33 34 36 37 39 40 42 43 44 45
28 29 29 30 30 30 29 29 28 27 27 25 24 23 23 23 24 24 24 24 24 25 25 26 27 28 29 31 32 33 34 35 36 37 38 40 42 44 45 46 48 49 50
31 32 32 32 31 31 31 29 28 28 29 27 26 25 26 26 27 28 28 28 28 28 29 30 31 33 34 35 36 37 39 40 41 42 43 45 46 48 50 52 53 54 55
34 35 35 34 34 32 30 29 29 28 27 28 28 28 28 28 29 30 30 30 31 32 33 34 36 37 38 40 41 42 43 45 46 47 48 50 51 53 55 56 58 59 60
35 35 34 33 32 30 29 29 29 29 27 26 27 27 28 30 31 32 33 34 34 35 37 38 40 41 42 44 45 46 47 48 50 52 53 55 56 58 59 61 62 64 65
35 35 33 32 31 29 29 29 30 29 28 27 28 29 30 31 33 34 35 36 38 39 40 42 43 44 45 47 48 49 49 52 54 56 57 59 60 62 63 65 66 68 69
36 34 33 32 31 30 30 29 29 29 28 29 31 32 33 34 35 36 37 39 40 42 43 44 45 46 47 49 50 51 52 55 56 58 60 62 64 65 67 68 69 71 72
36 37 35 33 31 30 29 30 31 31 31 31 33 34 35 36 37 39 41 42 43 44 45 46 47 49 50 51 53 53 56 57 59 61 63 65 66 67 68 69 70 71 71
39 39 36 34 33 32 33 32 32 33 34 35 36 36 38 39 40 42 43 45 46 47 48 49 50 52 53 54 55 56 59 60 62 64 66 67 68 69 69 69 69 69 69
40 41 39 37 35 35 35 35 34 35 36 37 38 39 40 41 43 45 46 48 49 51 52 53 53 55 56 57 58 60 62 63 65 66 66 67 68 68 68 68 67 65 64
43 43 42 39 39 39 38 38 38 38 39 40 41 42 43 44 46 47 49 50 52 54 57 57 57 59 59 60 61 63 64 64 65 65 66 66 66 67 66 64 62 60 59
46 45 45 44 43 42 42 42 41 41 43 43 45 46 47 47 49 50 52 54 56 58 60 61 62 62 63 64 64 65 65 64 64 64 65 64 64 62 60 57 56 54 53
49 48 47 46 46 45 46 46 45 45 45 47 48 49 49 51 52 54 56 57 60 61 63 64 65 65 65 65 65 64 63 62 63 62 61 60 58 55 53 51 50 49 47
49 49 48 48 48 48 48 48 47 46 47 50 52 53 53 55 56 58 59 60 61 62 64 65 64 64 64 63 62 60 60 60 60 58 56 54 52 50 48 46 44 44 44
50 50 50 50 49 50 50 49 48 49 50 53 55 57 57 57 58 59 60 61 62 62 63 62 62 62 60 59 58 57 57 56 55 53 51 49 47 44 42 41 41 41 42
50 51 51 50 51 51 50 49 51 53 54 56 58 59 59 60 60 60 61 62 62 62 61 61 59 58 57 55 54 53 53 51 50 49 47 44 41 40 39 39 39 40 41
48 48 48 49 51 52 52 52 54 56 58 59 60 61 60 60 60 61 61 61 61 60 58 56 55 53 52 51 50 49 48 47 45 43 40 39 38 38 38 39 39 40 40
46 47 48 49 50 52 53 55 57 58 59 60 61 62 62 61 60 60 59 57 56 54 53 51 49 48 47 46 45 44 43 41 38 37 36 36 37 38 38 39 38 39 39
45 46 47 49 51 53 56 57 58 59 60 61 61 61 60 59 58 56 54 51 49 46 45 43 42 41 40 40 39 38 36 35 34 33 33 34 35 36 37 37 37 38 38
45 47 48 50 52 54 55 57 57 58 59 59 58 57 57 55 53 50 46 44 41 38 36 35 34 33 33 33 32 31 30 30 31 31 31 32 33 34 36 36 37 37 37
44 45 47 49 50 51 53 54 55 55 54 53 52 50 48 45 42 39 36 34 31 30 29 28 27 27 26 26 25 26 26 26 28 29 30 31 31 31 33 34 35 34 34
42 44 45 47 48 49 49 49 49 47 45 43 41 39 36 33 30 29 27 25 24 23 22 21 21 20 20 21 21 22 23 24 26 27 27 28 28 28 28 30 30 30 31
Wind_Direction
263 266 269 272 277 284 289 293 299 300 303 308 310 310 306 303 298 292 290 291 291 290 290 289 290 292 293 292 291 290 290 289 289 289 288 286 286 285 284 283 282 281 279
263 266 268 270 274 280 284 287 291 294 294 298 300 300 300 299 296 293 293 292 292 292 293 293 293 294 295 293 292 292 291 291 291 291 291 289 287 287 286 284 283 283 281
266 267 268 270 272 275 278 280 283 286 286 288 290 292 292 292 289 290 292 292 292 291 292 293 293 294 295 294 293 291 292 293 293 293 292 291 290 289 287 285 284 284 283
265 266 268 270 271 273 275 277 278 279 281 281 282 284 286 286 285 285 285 288 289 289 288 288 289 289 290 291 291 291 291 292 292 292 291 290 289 289 287 286 285 284 283
266 266 268 270 272 273 275 277 278 277 277 278 278 280 281 280 281 281 280 282 284 284 284 284 285 285 287 289 290 290 290 290 290 290 289 288 287 287 287 286 286 284 283
269 268 270 271 272 274 276 276 276 275 274 274 275 277 279 278 278 279 279 280 280 282 282 284 284 284 285 286 288 289 289 288 288 287 287 286 286 286 286 285 284 283 282
271 271 271 273 274 274 277 277 277 276 274 272 273 275 276 276 276 277 278 278 279 280 281 282 283 284 284 285 287 287 288 288 287 287 286 286 286 286 285 285 284 283 282
272 270 273 273 274 273 275 276 277 278 276 274 274 275 273 274 276 277 277 278 278 279 280 281 283 283 284 285 286 287 287 287 286 287 287 287 287 287 286 285 284 283 282
272 270 271 276 277 276 280 280 279 279 274 275 275 275 275 275 276 276 277 278 279 280 281 282 283 283 283 284 285 286 287 287 286 287 287 287 287 286 286 285 284 284 283
274 276 277 282 282 282 284 282 280 278 274 274 276 276 276 276 276 276 276 277 278 279 280 281 282 282 283 284 284 285 286 286 286 286 286 286 286 286 286 286 285 285 284
281 284 288 289 290 290 285 282 279 279 276 275 276 276 276 277 276 276 277 278 278 278 279 280 281 283 284 284 285 286 286 287 287 287 287 286 286 286 287 287 287 286 286
287 290 291 292 292 293 291 285 280 279 278 277 277 276 276 276 275 276 277 277 278 278 279 280 281 283 284 285 285 286 287 287 288 288 288 287 287 287 287 287 287 287 287
286 287 289 292 290 289 289 288 283 279 278 278 278 277 277 276 276 277 277 278 278 279 280 281 282 283 285 285 285 286 287 288 288 288 288 288 288 288 288 288 288 288 287
283 286 289 291 289 288 287 286 283 280 279 279 278 277 277 278 278 277 278 279 280 281 281 282 284 284 285 286 286 287 287 288 288 289 289 289 289 289 289 289 289 288 287
285 288 291 289 288 288 287 286 282 280 279 278 278 277 278 279 278 278 279 280 281 281 282 283 284 284 285 286 286 287 288 288 289 289 290 290 290 290 290 290 289 288 288
288 289 288 287 286 285 285 284 282 281 279 278 277 277 278 279 279 280 280 280 280 281 281 282 283 284 285 286 287 287 288 289 290 291 291 291 291 291 291 289 288 288 287
286 286 286 284 284 283 283 281 279 279 278 277 276 276 276 277 278 279 280 279 280 281 281 283 284 284 285 286 287 288 289 290 291 291 292 293 293 292 290 289 288 287 286
282 282 282 281 280 281 280 278 278 277 279 277 276 276 277 278 278 278 279 279 280 281 283 284 285 285 286 287 288 289 290 291 292 293 294 294 293 292 291 290 289 288 287
279 279 279 278 278 278 277 277 275 274 277 279 279 278 279 278 278 279 279 280 282 283 284 284 285 286 288 289 290 290 291 292 293 294 294 293 292 292 291 290 290 289 289
275 275 276 275 274 274 276 275 275 276 278 278 278 277 278 279 279 279 280 282 283 284 285 286 287 288 290 291 292 293 293 294 295 295 295 293 292 292 291 292 292 291 290
273 274 274 274 273 275 276 276 276 277 278 278 278 278 279 279 280 281 282 283 285 286 286 287 289 290 292 292 293 294 294 295 296 296 295 294 294 294 294 294 293 293 292
273 273 273 274 276 277 277 278 279 280 280 280 280 280 280 282 283 284 285 286 286 287 288 289 291 292 292 293 294 295 296 296 296 296 296 296 296 297 297 296 296 296 296
275 276 278 279 281 281 281 281 282 282 282 283 283 283 283 283 284 285 286 287 288 289 290 291 291 292 293 295 296 297 298 298 297 297 298 298 299 300 299 300 300 300 300
281 282 283 283 283 284 284 285 285 285 285 285 285 285 285 286 287 287 288 289 290 290 290 291 292 293 295 298 299 300 300 301 301 302 302 303 304 304 304 305 306 306 306
288 289 289 289 289 288 288 287 287 287 287 287 287 287 287 288 288 289 289 289 290 290 291 292 293 297 299 300 301 303 305 306 307 308 309 310 310 311 310 310 311 311 311
293 293 293 293 292 291 290 290 289 290 290 290 290 289 290 290 290 288 288 287 288 289 292 296 299 301 302 305 308 311 313 314 315 316 317 318 318 318 317 316 317 317 317
Height
5895 5895 5895 5894 5894 5893 5892 5891 5890 5888 5887 5885 5884 5882 5881 5880 5879 5878 5878 5877 5877 5877 5876 5875 5875 5874 5873 5873 5872 5871 5870 5869 5868 5868 5867 5866 5865 5865 5864 5863 5863 5862 5861
5893 5893 5892 5892 5892 5891 5890 5889 5888 5886 5884 5883 5881 5880 5879 5877 5876 5875 5875 5874 5873 5873 5872 5872 5871 5870 5869 5868 5867 5866 5865 5864 5863 5862 5861 5860 5859 5858 5857 5856 5855 5855 5854
5890 5890 5890 5889 5889 5888 5887 5886 5885 5883 5882 5880 5878 5877 5876 5875 5873 5872 5871 5871 5870 5869 5868 5867 5866 5865 5864 5863 5862 5861 5859 5858 5857 5856 5855 5854 5853 5851 5850 5849 5848 5847 5846
5887 5887 5886 5885 5884 5884 5883 5882 5880 5879 5878 5876 5875 5873 5872 5871 5870 5868 5867 5867 5866 5865 5864 5863 5862 5860 5859 5858 5857 5855 5854 5853 5851 5850 5848 5847 5846 5844 5843 5841 5840 5838 5837
5883 5882 5881 5881 5879 5878 5877 5876 5875 5874 5872 5871 5870 5869 5868 5867 5866 5865 5863 5862 5861 5860 5859 5858 5857 5855 5854 5853 5851 5850 5848 5846 5845 5843 5841 5840 5838 5836 5834 5832 5830 5829 5827
5878 5877 5876 5875 5873 5872 5871 5870 5869 5867 5866 5865 5864 5863 5863 5862 5861 5860 5859 5857 5856 5855 5854 5853 5851 5850 5848 5846 5845 5843 5841 5839 5837 5835 5833 5831 5829 5826 5824 5822 5819 5817 5815
5871 5870 5869 5868 5866 5865 5865 5863 5861 5860 5859 5858 5858 5857 5857 5856 5855 5854 5853 5852 5851 5849 5848 5846 5844 5843 5841 5839 5837 5835 5833 5831 5828 5826 5823 5820 5818 5815 5812 5810 5807 5804 5802
5864 5862 5861 5861 5859 5858 5857 5856 5855 5853 5852 5852 5851 5850 5849 5849 5848 5847 5846 5845 5844 5842 5841 5839 5837 5835 5833 5830 5828 5826 5823 5820 5817 5815 5812 5809 5805 5802 5799 5796 5792 5789 5787
5857 5855 5854 5853 5852 5851 5849 5848 5847 5846 5846 5845 5844 5843 5843 5842 5842 5841 5839 5838 5836 5835 5833 5830 5828 5826 5823 5821 5818 5816 5813 5809 5806 5802 5799 5795 5792 5788 5784 5780 5776 5773 5769
5850 5849 5847 5845 5844 5843 5841 5841 5839 5839 5838 5838 5838 5837 5837 5835 5834 5833 5831 5830 5828 5826 5824 5821 5819 5816 5813 5810 5807 5805 5801 5797 5793 5789 5785 5781 5777 5773 5768 5764 5760 5756 5752
5843 5841 5839 5838 5837 5835 5835 5833 5832 5832 5832 5831 5831 5830 5829 5827 5826 5824 5823 5821 5819 5817 5814 5811 5808 5805 5802 5799 5796 5793 5788 5784 5780 5775 5771 5766 5761 5757 5752 5747 5742 5738 5733
5835 5834 5833 5831 5830 5829 5828 5827 5826 5826 5825 5824 5823 5821 5820 5819 5817 5815 5813 5811 5809 5806 5804 5800 5797 5794 5790 5787 5783 5780 5775 5770 5765 5760 5755 5750 5745 5740 5735 5729 5724 5719 5714
5828 5827 5826 5825 5823 5822 5821 5820 5819 5818 5816 5815 5814 5812 5810 5809 5807 5805 5802 5800 5797 5795 5792 5788 5785 5781 5777 5773 5769 5765 5760 5755 5750 5745 5739 5734 5728 5723 5717 5711 5706 5701 5695
5820 5819 5817 5816 5815 5814 5813 5811 5810 5808 5807 5805 5804 5802 5800 5798 5796 5794 5791 5788 5785 5782 5778 5775 5771 5767 5763 5759 5755 5750 5745 5740 5734 5728 5723 5717 5711 5705 5700 5694 5688 5682 5677
5811 5810 5809 5807 5806 5804 5803 5802 5800 5799 5797 5795 5793 5791 5789 5787 5784 5782 5779 5776 5773 5769 5764 5760 5757 5753 5749 5744 5739 5734 5729 5724 5718 5712 5706 5700 5694 5688 5682 5676 5670 5665 5660
5802 5800 5799 5798 5796 5794 5793 5791 5789 5787 5786 5783 5781 5779 5777 5774 5772 5769 5766 5762 5759 5755 5750 5745 5741 5737 5732 5728 5723 5718 5713 5708 5702 5696 5689 5683 5677 5671 5665 5659 5654 5648 5644
5792 5790 5788 5786 5785 5784 5782 5779 5777 5776 5773 5771 5769 5766 5763 5761 5758 5755 5751 5748 5744 5740 5735 5729 5725 5720 5716 5711 5706 5702 5696 5691 5685 5680 5674 5667 5661 5655 5649 5644 5639 5634 5629
5781 5779 5777 5775 5773 5772 5769 5766 5764 5762 5760 5758 5755 5752 5750 5747 5744 5740 5736 5732 5728 5724 5719 5714 5708 5704 5700 5695 5691 5686 5680 5675 5669 5664 5658 5652 5646 5641 5635 5630 5625 5621 5616
5770 5768 5765 5763 5761 5759 5756 5754 5751 5749 5747 5744 5741 5738 5735 5731 5728 5724 5720 5716 5712 5707 5702 5697 5692 5687 5683 5679 5675 5670 5665 5659 5654 5648 5644 5639 5633 5628 5623 5618 5613 5609 5604
5757 5755 5753 5750 5748 5745 5743 5741 5738 5735 5732 5730 5726 5723 5719 5715 5712 5708 5704 5700 5696 5691 5686 5682 5677 5673 5669 5665 5660 5656 5651 5645 5640 5635 5630 5625 5621 5616 5611 5607 5602 5597 5592
5744 5742 5740 5737 5734 5732 5729 5726 5723 5720 5717 5714 5710 5707 5703 5699 5695 5691 5688 5684 5679 5675 5671 5667 5663 5659 5655 5651 5646 5642 5638 5632 5627 5623 5618 5614 5609 5605 5600 5595 5590 5585 5580
5732 5730 5727 5724 5721 5718 5715 5712 5709 5705 5701 5698 5694 5690 5686 5682 5678 5675 5671 5667 5664 5661 5657 5653 5650 5646 5642 5638 5634 5630 5626 5622 5617 5613 5609 5604 5599 5594 5589 5584 5579 5573 5567
5721 5718 5714 5711 5708 5705 5701 5697 5693 5689 5685 5681 5677 5673 5669 5665 5662 5659 5656 5653 5651 5648 5645 5642 5638 5635 5631 5628 5624 5620 5616 5612 5608 5605 5600 5596 5590 5585 5579 5574 5568 5563 5556
5709 5705 5702 5698 5695 5691 5686 5682 5678 5673 5669 5664 5660 5656 5653 5649 5647 5644 5642 5641 5639 5637 5634 5632 5629 5626 5623 5620 5616 5613 5609 5605 5601 5597 5593 5588 5582 5576 5570 5564 5558 5552 5546
5697 5694 5689 5685 5681 5676 5672 5667 5662 5658 5654 5650 5646 5642 5639 5636 5634 5632 5631 5630 5629 5628 5626 5624 5621 5619 5616 5613 5610 5607 5603 5599 5595 5590 5585 5580 5574 5568 5562 5555 5549 5543 5537
5686 5682 5677 5672 5667 5662 5657 5652 5648 5644 5640 5636 5633 5629 5627 5625 5624 5623 5623 5622 5621 5621 5619 5618 5616 5614 5612 5609 5606 5602 5598 5594 5589 5585 5579 5574 5568 5562 5557 5550 5543 5536 5529